Lid_Strength_Index
3 4 5 5 5 6 7 11 14 8 8 12 14 16 11 8 8 7 9 9 11 13 12 13 12 13 11 7 8 12 10 12 16 14 10 9 11 13 12 18 17 17 17 17
3 4 5 5 5 6 8 13 12 9 9 16 15 12 11 9 10 9 10 10 10 10 13 14 12 11 8 7 9 11 10 14 18 17 13 11 13 12 12 13 14 17 18 17
3 4 5 5 5 6 11 13 15 12 12 12 14 15 13 12 9 9 8 9 9 10 12 11 13 12 9 8 7 6 8 13 15 18 15 13 15 13 13 13 17 16 16 15
2 3 5 5 6 6 11 13 15 13 15 14 14 14 13 13 13 10 9 10 10 12 14 13 13 11 10 8 7 9 10 15 14 13 12 12 13 13 13 14 14 16 15 14
2 3 5 5 6 6 11 13 13 12 13 12 14 14 14 13 12 12 11 12 11 11 12 12 13 11 11 12 10 10 10 14 13 15 12 13 14 13 12 12 12 13 14 14
3 4 5 5 5 8 13 13 12 10 13 14 15 15 13 12 11 11 10 10 11 12 11 9 9 8 8 9 11 11 12 13 15 17 13 14 17 14 12 12 12 13 16 13
3 4 5 5 5 7 9 11 10 13 15 14 13 12 11 11 11 12 10 9 11 9 8 8 7 8 8 9 9 9 12 12 14 17 15 21 13 10 11 12 12 11 11 10
4 4 4 5 6 6 9 9 10 11 14 13 12 11 11 10 11 12 10 9 8 8 10 11 13 13 12 11 10 11 11 12 15 18 18 15 12 12 12 13 14 10 11 10
5 4 4 5 6 5 9 9 8 10 13 14 10 12 11 13 13 12 10 8 7 8 12 12 16 17 15 15 13 10 10 10 14 16 19 20 12 10 8 9 16 9 9 9
4 4 4 5 5 6 7 9 10 12 13 11 11 13 14 11 13 13 12 10 9 9 14 14 15 16 12 16 15 15 14 14 16 16 17 15 11 9 8 15 15 9 8 8
4 4 4 4 5 5 8 9 9 10 12 12 9 9 11 11 12 14 11 10 10 9 13 14 13 14 13 14 12 14 15 15 16 15 17 18 9 9 13 10 8 8 7 7
5 4 4 4 5 5 6 10 8 8 11 13 10 8 7 7 8 11 11 11 9 8 11 14 11 13 13 13 16 10 15 12 14 13 14 9 7 8 7 6 8 7 8 8
5 5 4 4 4 5 6 8 9 10 11 12 12 10 8 7 6 6 11 10 8 9 8 12 10 13 12 14 14 12 11 10 12 12 10 10 8 7 6 6 7 6 7 7
5 5 4 4 4 5 5 7 9 10 13 14 11 7 7 5 6 6 6 8 8 9 10 12 11 12 11 13 12 13 12 11 12 11 10 9 7 8 6 7 7 7 7 7
5 4 3 4 4 5 6 6 8 8 12 12 11 8 7 6 7 7 6 7 8 10 11 13 13 10 11 10 13 14 11 12 13 13 10 10 9 9 6 7 8 8 9 9
5 4 4 5 5 6 8 11 7 6 7 10 13 10 8 7 5 6 8 7 9 10 12 12 12 9 11 13 15 13 10 9 10 11 9 9 9 7 6 7 8 7 8 8
4 4 5 5 5 8 10 13 8 6 6 9 11 12 9 7 6 6 7 7 9 10 12 12 13 13 11 13 15 12 10 9 9 8 9 9 10 10 6 6 7 7 8 9
4 5 5 6 6 6 9 9 5 6 10 10 11 13 10 7 9 9 8 9 9 10 11 11 13 12 11 15 12 10 10 9 9 9 9 10 10 9 7 7 7 8 9 9
6 6 6 8 9 10 9 3 4 6 9 10 9 12 14 8 10 10 9 10 11 10 12 12 12 13 13 12 12 11 10 10 10 9 10 10 11 11 10 7 8 9 10 9
6 9 10 12 8 5 4 6 8 10 9 8 11 11 12 10 11 13 11 11 12 13 12 11 12 12 8 8 9 10 10 10 10 11 11 11 12 12 11 11 10 10 11 10
10 10 10 8 5 6 7 9 10 10 10 9 10 10 12 9 12 13 11 13 11 14 13 13 13 14 9 7 8 9 9 9 10 10 10 10 11 12 12 12 12 11 11 12
9 9 8 8 8 8 10 11 10 9 11 9 9 8 9 8 9 11 11 12 10 14 11 13 14 12 9 7 8 7 8 9 9 10 11 11 11 11 12 12 12 12 12 12
8 9 10 11 12 13 13 15 13 11 9 7 7 9 7 8 8 10 11 12 13 10 12 13 12 11 8 7 7 7 7 8 9 10 10 10 11 11 12 13 12 12 13 13
10 11 15 14 14 14 14 12 12 9 8 8 8 9 9 10 10 11 12 11 10 14 15 14 12 9 9 7 7 9 9 9 9 10 10 10 11 11 12 12 12 12 13 14
11 11 14 14 12 11 11 9 10 7 7 8 9 9 9 9 10 11 12 13 14 13 14 13 11 9 8 9 9 9 9 8 8 9 10 11 11 12 13 13 13 14 14 15
9 10 13 12 12 12 12 9 9 7 7 6 7 9 11 11 11 12 12 13 15 14 11 11 9 9 9 9 8 8 8 8 8 9 10 11 12 13 14 14 14 14 14 15
10 12 11 12 12 13 12 11 9 7 7 10 9 11 12 10 13 13 12 14 12 10 10 10 9 9 10 10 9 8 8 9 8 9 10 11 12 12 13 15 14 14 14 14